Time,TemperatureF,DewpointF,PressureIn,WindDirection,WindDirectionDegrees,WindSpeedMPH,WindSpeedGustMPH,Humidity,HourlyPrecipIn,Conditions,Clouds,dailyrainin,SoftwareType,DateUTC
2013-07-16 00:00:00,74.9,70.8,30.12,North,351,0.0,0.0,87,0.00,,SKC,0.00,VWS V14.01,2013-07-16 04:00:00,
2013-07-16 00:01:00,74.9,70.8,30.12,North,351,0.0,0.0,87,0.00,,SKC,0.00,VWS V14.01,2013-07-16 04:01:00,
2013-07-16 00:02:00,74.9,70.8,30.12,North,351,0.0,0.0,87,0.00,,SKC,0.00,VWS V14.01,2013-07-16 04:02:00,
2013-07-16 00:08:00,74.9,70.8,30.12,North,351,0.0,0.0,87,0.00,,SKC,0.00,VWS V14.01,2013-07-16 04:08:00,
2013-07-16 00:13:00,74.7,70.9,30.12,North,351,0.0,0.0,88,0.00,,SKC,0.00,VWS V14.01,2013-07-16 04:13:00,
2013-07-16 00:18:00,74.7,70.9,30.12,North,351,0.0,0.0,88,0.00,,SKC,0.00,VWS V14.01,2013-07-16 04:18:00,
2013-07-16 00:23:00,74.6,70.8,30.12,North,351,0.0,0.0,88,0.00,,SKC,0.00,VWS V14.01,2013-07-16 04:23:00,
2013-07-16 00:28:00,74.4,70.6,30.12,North,351,0.0,0.0,88,0.00,,SKC,0.00,VWS V14.01,2013-07-16 04:28:00,
2013-07-16 00:33:00,74.4,70.6,30.13,North,351,0.0,0.0,88,0.00,,SKC,0.00,VWS V14.01,2013-07-16 04:33:00,
2013-07-16 00:38:00,74.2,70.4,30.13,North,351,0.0,0.0,88,0.00,,SKC,0.00,VWS V14.01,2013-07-16 04:38:00,
2013-07-16 00:43:00,74.0,70.2,30.13,North,351,0.0,0.0,88,0.00,,SKC,0.00,VWS V14.01,2013-07-16 04:43:00,
2013-07-16 00:48:00,74.0,70.2,30.13,North,351,0.0,0.0,88,0.00,,SKC,0.00,VWS V14.01,2013-07-16 04:48:00,
2013-07-16 00:54:00,74.0,70.2,30.13,North,351,0.0,0.0,88,0.00,,SKC,0.00,VWS V14.01,2013-07-16 04:54:00,
2013-07-16 00:59:00,73.9,70.1,30.13,North,351,0.0,0.0,88,0.00,,SKC,0.00,VWS V14.01,2013-07-16 04:59:00,
2013-07-16 01:00:00,73.9,70.1,30.13,North,351,0.0,0.0,88,0.00,,SKC,0.00,VWS V14.01,2013-07-16 05:00:00,
2013-07-16 01:04:00,73.5,69.7,30.13,North,351,0.0,0.0,88,0.00,,SKC,0.00,VWS V14.01,2013-07-16 05:04:00,
2013-07-16 01:09:00,73.3,69.9,30.13,North,351,0.0,0.0,89,0.00,,SKC,0.00,VWS V14.01,2013-07-16 05:09:00,
2013-07-16 01:14:00,73.2,69.8,30.13,North,351,0.0,0.0,89,0.00,,SKC,0.00,VWS V14.01,2013-07-16 05:14:00,
2013-07-16 01:19:00,73.0,69.6,30.13,North,351,0.0,0.0,89,0.00,,SKC,0.00,VWS V14.01,2013-07-16 05:19:00,
2013-07-16 01:24:00,73.0,69.6,30.13,North,351,0.0,0.0,89,0.00,,SKC,0.00,VWS V14.01,2013-07-16 05:24:00,
2013-07-16 01:29:00,72.8,69.4,30.13,North,351,0.0,0.0,89,0.00,,SKC,0.00,VWS V14.01,2013-07-16 05:29:00,
2013-07-16 01:34:00,72.8,69.4,30.13,North,351,0.0,0.0,89,0.00,,SKC,0.00,VWS V14.01,2013-07-16 05:34:00,
2013-07-16 01:40:00,72.7,69.3,30.13,North,351,0.0,0.0,89,0.00,,SKC,0.00,VWS V14.01,2013-07-16 05:40:00,
2013-07-16 01:45:00,72.7,69.3,30.13,North,351,0.0,0.0,89,0.00,,SKC,0.00,VWS V14.01,2013-07-16 05:45:00,
2013-07-16 01:50:00,72.7,69.3,30.13,North,351,0.0,0.0,89,0.00,,SKC,0.00,VWS V14.01,2013-07-16 05:50:00,
2013-07-16 01:55:00,72.7,69.6,30.13,North,351,0.0,0.0,90,0.00,,SKC,0.00,VWS V14.01,2013-07-16 05:55:00,
2013-07-16 02:00:00,72.7,69.6,30.13,North,351,0.0,0.0,90,0.00,,SKC,0.00,VWS V14.01,2013-07-16 06:00:00,
2013-07-16 02:05:00,72.7,69.6,30.13,North,351,0.0,0.0,90,0.00,,SKC,0.00,VWS V14.01,2013-07-16 06:05:00,
2013-07-16 02:10:00,72.7,69.6,30.13,North,351,0.0,0.0,90,0.00,,SKC,0.00,VWS V14.01,2013-07-16 06:10:00,
2013-07-16 02:15:00,72.7,69.6,30.12,North,351,0.0,0.0,90,0.00,,SKC,0.00,VWS V14.01,2013-07-16 06:15:00,
2013-07-16 02:21:00,72.5,69.4,30.12,North,351,0.0,0.0,90,0.00,,SKC,0.00,VWS V14.01,2013-07-16 06:21:00,
2013-07-16 02:26:00,72.5,69.4,30.12,North,351,0.0,0.0,90,0.00,,SKC,0.00,VWS V14.01,2013-07-16 06:26:00,
2013-07-16 02:31:00,72.3,69.2,30.12,North,351,0.0,0.0,90,0.00,,SKC,0.00,VWS V14.01,2013-07-16 06:31:00,
2013-07-16 02:36:00,72.5,69.7,30.12,North,351,0.0,0.0,91,0.00,,SKC,0.00,VWS V14.01,2013-07-16 06:36:00,
2013-07-16 02:41:00,72.3,69.5,30.12,North,351,0.0,0.0,91,0.00,,SKC,0.00,VWS V14.01,2013-07-16 06:41:00,
2013-07-16 02:46:00,72.1,69.3,30.12,North,351,0.0,0.0,91,0.00,,SKC,0.00,VWS V14.01,2013-07-16 06:46:00,
2013-07-16 02:51:00,72.0,69.2,30.12,North,351,0.0,0.0,91,0.00,,SKC,0.00,VWS V14.01,2013-07-16 06:51:00,
2013-07-16 02:57:00,71.6,68.8,30.12,North,351,0.0,0.0,91,0.00,,SKC,0.00,VWS V14.01,2013-07-16 06:57:00,
2013-07-16 03:00:00,71.5,69.1,30.11,North,351,0.0,0.0,92,0.00,,SKC,0.00,VWS V14.01,2013-07-16 07:00:00,
2013-07-16 03:02:00,71.5,69.1,30.11,North,351,0.0,0.0,92,0.00,,SKC,0.00,VWS V14.01,2013-07-16 07:02:00,
2013-07-16 03:07:00,71.5,69.1,30.11,North,351,0.0,0.0,92,0.00,,SKC,0.00,VWS V14.01,2013-07-16 07:07:00,
2013-07-16 03:12:00,71.5,69.1,30.11,North,351,0.0,0.0,92,0.00,,SKC,0.00,VWS V14.01,2013-07-16 07:12:00,
2013-07-16 03:17:00,71.5,69.1,30.12,North,351,0.0,0.0,92,0.00,,SKC,0.00,VWS V14.01,2013-07-16 07:17:00,
2013-07-16 03:22:00,71.5,69.1,30.12,North,351,0.0,0.0,92,0.00,,SKC,0.00,VWS V14.01,2013-07-16 07:22:00,
2013-07-16 03:27:00,71.6,69.2,30.12,North,351,0.0,0.0,92,0.00,,SKC,0.00,VWS V14.01,2013-07-16 07:27:00,
2013-07-16 03:33:00,71.8,69.3,30.11,North,351,0.0,0.0,92,0.00,,SKC,0.00,VWS V14.01,2013-07-16 07:33:00,
2013-07-16 03:38:00,71.8,69.3,30.11,North,351,0.0,0.0,92,0.00,,SKC,0.00,VWS V14.01,2013-07-16 07:38:00,
2013-07-16 03:43:00,71.8,69.3,30.11,North,351,0.0,0.0,92,0.00,,SKC,0.00,VWS V14.01,2013-07-16 07:43:00,
2013-07-16 03:48:00,71.6,69.2,30.12,North,351,0.0,0.0,92,0.00,,SKC,0.00,VWS V14.01,2013-07-16 07:48:00,
2013-07-16 03:53:00,71.5,69.1,30.12,North,351,0.0,0.0,92,0.00,,SKC,0.00,VWS V14.01,2013-07-16 07:53:00,
2013-07-16 03:58:00,71.3,68.9,30.12,North,351,0.0,0.0,92,0.00,,SKC,0.00,VWS V14.01,2013-07-16 07:58:00,
2013-07-16 04:00:00,71.3,68.9,30.12,North,351,0.0,0.0,92,0.00,,SKC,0.00,VWS V14.01,2013-07-16 08:00:00,
2013-07-16 04:03:00,71.3,68.9,30.12,North,351,0.0,0.0,92,0.00,,SKC,0.00,VWS V14.01,2013-07-16 08:03:00,
2013-07-16 04:08:00,71.1,68.7,30.12,North,351,0.0,0.0,92,0.00,,SKC,0.00,VWS V14.01,2013-07-16 08:08:00,
2013-07-16 04:14:00,71.1,68.7,30.12,North,351,0.0,0.0,92,0.00,,SKC,0.00,VWS V14.01,2013-07-16 08:14:00,
2013-07-16 04:19:00,70.9,68.5,30.12,North,351,0.0,0.0,92,0.00,,SKC,0.00,VWS V14.01,2013-07-16 08:19:00,
2013-07-16 04:24:00,70.8,68.4,30.12,North,351,0.0,0.0,92,0.00,,SKC,0.00,VWS V14.01,2013-07-16 08:24:00,
2013-07-16 04:29:00,70.6,68.2,30.12,North,351,0.0,0.0,92,0.00,,SKC,0.00,VWS V14.01,2013-07-16 08:29:00,
2013-07-16 04:34:00,70.8,68.4,30.12,North,351,0.0,0.0,92,0.00,,SKC,0.00,VWS V14.01,2013-07-16 08:34:00,
2013-07-16 04:39:00,70.8,68.4,30.12,North,351,0.0,0.0,92,0.00,,SKC,0.00,VWS V14.01,2013-07-16 08:39:00,
2013-07-16 04:44:00,70.8,68.4,30.12,North,351,0.0,0.0,92,0.00,,SKC,0.00,VWS V14.01,2013-07-16 08:44:00,
2013-07-16 04:50:00,70.6,68.2,30.12,North,351,0.0,0.0,92,0.00,,SKC,0.00,VWS V14.01,2013-07-16 08:50:00,
2013-07-16 04:55:00,70.4,68.0,30.12,North,351,0.0,0.0,92,0.00,,SKC,0.00,VWS V14.01,2013-07-16 08:55:00,
2013-07-16 05:00:00,70.4,68.3,30.12,North,351,0.0,0.0,93,0.00,,SKC,0.00,VWS V14.01,2013-07-16 09:00:00,
2013-07-16 05:05:00,70.6,68.5,30.12,North,351,0.0,0.0,93,0.00,,SKC,0.00,VWS V14.01,2013-07-16 09:05:00,
2013-07-16 05:10:00,70.6,68.5,30.12,North,351,0.0,0.0,93,0.00,,SKC,0.00,VWS V14.01,2013-07-16 09:10:00,
2013-07-16 05:15:00,70.4,68.3,30.12,North,351,0.0,0.0,93,0.00,,SKC,0.00,VWS V14.01,2013-07-16 09:15:00,
2013-07-16 05:20:00,70.6,68.5,30.13,North,351,0.0,0.0,93,0.00,,SKC,0.00,VWS V14.01,2013-07-16 09:20:00,
2013-07-16 05:25:00,70.6,68.5,30.13,North,351,0.0,0.0,93,0.00,,SKC,0.00,VWS V14.01,2013-07-16 09:25:00,
2013-07-16 05:31:00,70.6,68.5,30.13,North,351,0.0,0.0,93,0.00,,SKC,0.00,VWS V14.01,2013-07-16 09:31:00,
2013-07-16 05:36:00,70.6,68.5,30.13,North,351,0.0,0.0,93,0.00,,SKC,0.00,VWS V14.01,2013-07-16 09:36:00,
2013-07-16 05:41:00,70.6,68.5,30.13,North,351,0.0,0.0,93,0.00,,SKC,0.00,VWS V14.01,2013-07-16 09:41:00,
2013-07-16 05:46:00,70.6,68.5,30.13,North,351,0.0,0.0,93,0.00,,SKC,0.00,VWS V14.01,2013-07-16 09:46:00,
2013-07-16 05:51:00,70.6,68.5,30.13,North,351,0.0,0.0,93,0.00,,SKC,0.00,VWS V14.01,2013-07-16 09:51:00,
2013-07-16 05:56:00,70.4,68.3,30.13,North,351,0.0,0.0,93,0.00,,SKC,0.00,VWS V14.01,2013-07-16 09:56:00,
2013-07-16 06:00:00,70.4,68.3,30.13,WNW,296,0.0,0.0,93,0.00,,SKC,0.00,VWS V14.01,2013-07-16 10:00:00,
2013-07-16 06:01:00,70.4,68.3,30.13,WNW,296,0.0,0.0,93,0.00,,SKC,0.00,VWS V14.01,2013-07-16 10:01:00,
2013-07-16 06:06:00,70.3,68.2,30.13,WNW,296,0.0,0.0,93,0.00,,SKC,0.00,VWS V14.01,2013-07-16 10:06:00,
2013-07-16 06:11:00,69.8,67.7,30.13,WNW,296,0.0,0.0,93,0.00,,SKC,0.00,VWS V14.01,2013-07-16 10:11:00,
2013-07-16 06:17:00,69.8,67.7,30.14,WNW,296,0.0,0.0,93,0.00,,SKC,0.00,VWS V14.01,2013-07-16 10:17:00,
2013-07-16 06:22:00,69.9,67.8,30.14,WNW,296,0.0,0.0,93,0.00,,SKC,0.00,VWS V14.01,2013-07-16 10:22:00,
2013-07-16 06:27:00,70.1,68.0,30.14,WNW,296,0.0,0.0,93,0.00,,SKC,0.00,VWS V14.01,2013-07-16 10:27:00,
2013-07-16 06:32:00,70.1,68.0,30.14,WNW,296,0.0,0.0,93,0.00,,SKC,0.00,VWS V14.01,2013-07-16 10:32:00,
2013-07-16 06:37:00,69.8,67.7,30.14,WNW,296,0.0,0.0,93,0.00,,SKC,0.00,VWS V14.01,2013-07-16 10:37:00,
2013-07-16 06:42:00,69.8,67.7,30.14,WNW,296,0.0,0.0,93,0.00,,SKC,0.00,VWS V14.01,2013-07-16 10:42:00,
2013-07-16 06:47:00,69.8,67.7,30.15,WNW,296,0.0,0.0,93,0.00,,SKC,0.00,VWS V14.01,2013-07-16 10:47:00,
2013-07-16 06:52:00,69.6,67.5,30.15,WNW,296,0.0,0.0,93,0.00,,SKC,0.00,VWS V14.01,2013-07-16 10:52:00,
2013-07-16 06:58:00,69.6,67.5,30.15,WNW,296,0.0,0.0,93,0.00,,SKC,0.00,VWS V14.01,2013-07-16 10:58:00,
2013-07-16 07:00:00,69.6,67.5,30.15,WNW,296,0.0,0.0,93,0.00,,SKC,0.00,VWS V14.01,2013-07-16 11:00:00,
2013-07-16 07:03:00,69.6,67.5,30.15,WNW,296,0.0,0.0,93,0.00,,SKC,0.00,VWS V14.01,2013-07-16 11:03:00,
2013-07-16 07:08:00,69.8,67.7,30.15,WNW,296,0.0,0.0,93,0.00,,SKC,0.00,VWS V14.01,2013-07-16 11:08:00,
2013-07-16 07:13:00,70.1,68.3,30.15,WNW,296,0.0,0.0,94,0.00,,SKC,0.00,VWS V14.01,2013-07-16 11:13:00,
2013-07-16 07:18:00,70.3,68.5,30.15,WNW,296,0.0,0.0,94,0.00,,SKC,0.00,VWS V14.01,2013-07-16 11:18:00,
2013-07-16 07:23:00,70.6,68.8,30.15,WNW,296,0.0,0.0,94,0.00,,SKC,0.00,VWS V14.01,2013-07-16 11:23:00,
2013-07-16 07:28:00,70.9,69.1,30.15,WNW,296,0.0,0.0,94,0.00,,SKC,0.00,VWS V14.01,2013-07-16 11:28:00,
2013-07-16 07:33:00,71.5,69.7,30.15,WNW,296,0.0,0.0,94,0.00,,SKC,0.00,VWS V14.01,2013-07-16 11:33:00,
2013-07-16 07:39:00,71.6,69.8,30.15,WNW,296,0.0,0.0,94,0.00,,SKC,0.00,VWS V14.01,2013-07-16 11:39:00,
2013-07-16 07:44:00,71.8,70.0,30.15,WNW,296,0.0,0.0,94,0.00,,SKC,0.00,VWS V14.01,2013-07-16 11:44:00,
2013-07-16 07:49:00,72.1,70.3,30.16,WNW,296,0.0,0.0,94,0.00,,SKC,0.00,VWS V14.01,2013-07-16 11:49:00,
2013-07-16 07:54:00,72.3,70.5,30.16,WNW,296,0.0,0.0,94,0.00,,SKC,0.00,VWS V14.01,2013-07-16 11:54:00,
2013-07-16 07:59:00,72.5,70.7,30.16,WNW,296,0.0,0.0,94,0.00,,SKC,0.00,VWS V14.01,2013-07-16 11:59:00,
2013-07-16 08:00:00,72.7,70.9,30.16,WNW,296,0.0,0.0,94,0.00,,SKC,0.00,VWS V14.01,2013-07-16 12:00:00,
2013-07-16 08:04:00,73.0,71.2,30.16,WNW,296,0.0,0.0,94,0.00,,SKC,0.00,VWS V14.01,2013-07-16 12:04:00,
2013-07-16 08:09:00,73.3,71.2,30.16,WNW,296,0.0,0.0,93,0.00,,SKC,0.00,VWS V14.01,2013-07-16 12:09:00,
2013-07-16 08:14:00,73.7,71.6,30.16,WNW,296,0.0,0.0,93,0.00,,SKC,0.00,VWS V14.01,2013-07-16 12:14:00,
2013-07-16 08:20:00,74.4,72.6,30.16,WNW,296,0.0,0.0,94,0.00,,SKC,0.00,VWS V14.01,2013-07-16 12:20:00,
2013-07-16 08:25:00,75.3,73.1,30.16,WNW,296,0.0,0.0,93,0.00,,SKC,0.00,VWS V14.01,2013-07-16 12:25:00,
2013-07-16 08:30:00,75.4,72.9,30.16,WNW,296,0.0,0.0,92,0.00,,SKC,0.00,VWS V14.01,2013-07-16 12:30:00,
2013-07-16 08:35:00,75.6,73.1,30.16,WNW,296,0.0,0.0,92,0.00,,SKC,0.00,VWS V14.01,2013-07-16 12:35:00,
2013-07-16 08:40:00,76.3,73.5,30.16,WNW,296,0.0,0.0,91,0.00,,SKC,0.00,VWS V14.01,2013-07-16 12:40:00,
2013-07-16 08:45:00,77.0,73.5,30.16,WNW,296,0.0,0.0,89,0.00,,SKC,0.00,VWS V14.01,2013-07-16 12:45:00,
2013-07-16 08:50:00,77.9,73.7,30.16,WNW,296,0.0,0.0,87,0.00,,SKC,0.00,VWS V14.01,2013-07-16 12:50:00,
2013-07-16 08:55:00,78.6,73.0,30.16,WNW,296,0.0,0.0,83,0.00,,SKC,0.00,VWS V14.01,2013-07-16 12:55:00,
2013-07-16 09:00:00,79.2,73.2,30.16,WNW,296,0.0,0.0,82,0.00,,SKC,0.00,VWS V14.01,2013-07-16 13:00:00,
2013-07-16 09:06:00,79.9,73.2,30.16,WNW,296,0.0,0.0,80,0.00,,SKC,0.00,VWS V14.01,2013-07-16 13:06:00,
2013-07-16 09:11:00,80.7,73.2,30.16,WNW,296,0.0,0.0,78,0.00,,SKC,0.00,VWS V14.01,2013-07-16 13:11:00,
2013-07-16 09:16:00,81.1,72.8,30.16,WNW,296,0.0,0.0,76,0.00,,SKC,0.00,VWS V14.01,2013-07-16 13:16:00,
2013-07-16 09:21:00,81.6,72.9,30.16,WNW,296,0.0,0.0,75,0.00,,SKC,0.00,VWS V14.01,2013-07-16 13:21:00,
2013-07-16 09:26:00,82.2,72.7,30.16,WNW,296,0.0,0.0,73,0.00,,SKC,0.00,VWS V14.01,2013-07-16 13:26:00,
2013-07-16 09:31:00,82.8,72.9,30.17,WNW,296,0.0,0.0,72,0.00,,SKC,0.00,VWS V14.01,2013-07-16 13:31:00,
2013-07-16 09:37:00,83.4,73.4,30.17,WNW,296,0.0,0.0,72,0.00,,SKC,0.00,VWS V14.01,2013-07-16 13:37:00,
2013-07-16 09:42:00,83.6,73.2,30.17,WNW,296,0.0,0.0,71,0.00,,SKC,0.00,VWS V14.01,2013-07-16 13:42:00,
2013-07-16 09:47:00,84.1,72.8,30.16,ENE,65,6.0,6.0,69,0.00,,SKC,0.00,VWS V14.01,2013-07-16 13:47:00,
2013-07-16 09:52:00,83.4,72.6,30.16,ENE,67,0.0,7.0,70,0.00,,SKC,0.00,VWS V14.01,2013-07-16 13:52:00,
2013-07-16 09:57:00,83.8,72.1,30.16,ENE,67,1.0,7.0,68,0.00,,SKC,0.00,VWS V14.01,2013-07-16 13:57:00,
2013-07-16 10:00:00,84.0,71.9,30.16,ENE,67,0.0,7.0,67,0.00,,SKC,0.00,VWS V14.01,2013-07-16 14:00:00,
2013-07-16 10:02:00,84.0,71.9,30.16,ENE,67,0.0,0.0,67,0.00,,SKC,0.00,VWS V14.01,2013-07-16 14:02:00,
2013-07-16 10:07:00,84.1,72.0,30.16,ENE,67,0.0,0.0,67,0.00,,SKC,0.00,VWS V14.01,2013-07-16 14:07:00,
2013-07-16 10:12:00,84.5,71.9,30.16,ENE,67,0.0,4.0,66,0.00,,SKC,0.00,VWS V14.01,2013-07-16 14:12:00,
2013-07-16 10:17:00,85.1,72.5,30.16,ENE,67,0.0,4.0,66,0.00,,SKC,0.00,VWS V14.01,2013-07-16 14:17:00,
2013-07-16 10:22:00,85.5,72.4,30.16,ENE,67,0.0,5.0,65,0.00,,SKC,0.00,VWS V14.01,2013-07-16 14:22:00,
2013-07-16 10:28:00,85.3,70.8,30.16,East,96,0.0,6.0,62,0.00,,SKC,0.00,VWS V14.01,2013-07-16 14:28:00,
2013-07-16 10:33:00,85.3,71.3,30.16,East,96,0.0,6.0,63,0.00,,SKC,0.00,VWS V14.01,2013-07-16 14:33:00,
2013-07-16 10:38:00,85.7,71.7,30.16,East,96,0.0,6.0,63,0.00,,SKC,0.00,VWS V14.01,2013-07-16 14:38:00,
2013-07-16 10:43:00,86.1,72.5,30.16,East,98,0.0,6.0,64,0.00,,SKC,0.00,VWS V14.01,2013-07-16 14:43:00,
2013-07-16 10:48:00,86.5,71.5,30.16,East,96,4.0,7.0,61,0.00,,SKC,0.00,VWS V14.01,2013-07-16 14:48:00,
2013-07-16 10:53:00,86.3,71.8,30.16,East,96,4.0,7.0,62,0.00,,SKC,0.00,VWS V14.01,2013-07-16 14:53:00,
2013-07-16 10:58:00,86.5,71.9,30.16,East,96,0.0,7.0,62,0.00,,SKC,0.00,VWS V14.01,2013-07-16 14:58:00,
2013-07-16 11:00:00,86.5,71.0,30.16,East,90,3.0,7.0,60,0.00,,SKC,0.00,VWS V14.01,2013-07-16 15:00:00,
2013-07-16 11:04:00,86.3,70.8,30.16,East,90,0.0,5.0,60,0.00,,SKC,0.00,VWS V14.01,2013-07-16 15:04:00,
2013-07-16 11:09:00,85.7,71.2,30.16,East,90,0.0,5.0,62,0.00,,SKC,0.00,VWS V14.01,2013-07-16 15:09:00,
2013-07-16 11:14:00,85.9,71.4,30.16,East,90,0.0,5.0,62,0.00,,SKC,0.00,VWS V14.01,2013-07-16 15:14:00,
2013-07-16 11:19:00,86.5,71.5,30.16,ENE,63,6.0,7.0,61,0.00,,SKC,0.00,VWS V14.01,2013-07-16 15:19:00,
2013-07-16 11:24:00,86.7,71.2,30.16,East,95,0.0,8.0,60,0.00,,SKC,0.00,VWS V14.01,2013-07-16 15:24:00,
2013-07-16 11:29:00,87.0,72.9,30.16,East,95,0.0,8.0,63,0.00,,SKC,0.00,VWS V14.01,2013-07-16 15:29:00,
2013-07-16 11:34:00,87.0,71.9,30.16,East,95,0.0,8.0,61,0.00,,SKC,0.00,VWS V14.01,2013-07-16 15:34:00,
2013-07-16 11:39:00,86.7,71.2,30.16,East,92,0.0,8.0,60,0.00,,SKC,0.00,VWS V14.01,2013-07-16 15:39:00,
2013-07-16 11:44:00,86.3,70.8,30.16,ENE,57,6.0,8.0,60,0.00,,SKC,0.00,VWS V14.01,2013-07-16 15:44:00,
2013-07-16 11:49:00,86.3,71.8,30.15,ENE,65,1.0,8.0,62,0.00,,SKC,0.00,VWS V14.01,2013-07-16 15:49:00,
2013-07-16 11:55:00,87.0,71.4,30.15,ESE,108,5.0,8.0,60,0.00,,SKC,0.00,VWS V14.01,2013-07-16 15:55:00,
2013-07-16 12:00:00,87.0,69.9,30.15,East,96,6.0,9.0,57,0.00,,SKC,0.00,VWS V14.01,2013-07-16 16:00:00,
2013-07-16 12:05:00,87.4,71.3,30.15,East,96,1.0,1.0,59,0.00,,SKC,0.00,VWS V14.01,2013-07-16 16:05:00,
2013-07-16 12:10:00,87.4,70.3,30.15,ESE,112,0.0,8.0,57,0.00,,SKC,0.00,VWS V14.01,2013-07-16 16:10:00,
2013-07-16 12:15:00,87.0,71.4,30.15,ESE,121,0.0,8.0,60,0.00,,SKC,0.00,VWS V14.01,2013-07-16 16:15:00,
2013-07-16 12:20:00,87.2,71.6,30.15,ENE,67,0.0,8.0,60,0.00,,SKC,0.00,VWS V14.01,2013-07-16 16:20:00,
2013-07-16 12:25:00,87.8,70.7,30.15,ENE,68,0.0,8.0,57,0.00,,SKC,0.00,VWS V14.01,2013-07-16 16:25:00,
2013-07-16 12:30:00,88.4,70.7,30.15,ENE,69,0.0,8.0,56,0.00,,SKC,0.00,VWS V14.01,2013-07-16 16:30:00,
2013-07-16 12:35:00,89.0,71.3,30.14,ESE,108,7.0,8.0,56,0.00,,SKC,0.00,VWS V14.01,2013-07-16 16:35:00,
2013-07-16 12:40:00,88.8,71.1,30.14,East,84,7.0,8.0,56,0.00,,SKC,0.00,VWS V14.01,2013-07-16 16:40:00,
2013-07-16 12:45:00,88.6,69.3,30.14,East,85,0.0,9.0,53,0.00,,SKC,0.00,VWS V14.01,2013-07-16 16:45:00,
2013-07-16 12:51:00,89.0,71.3,30.14,East,85,0.0,9.0,56,0.00,,SKC,0.00,VWS V14.01,2013-07-16 16:51:00,
2013-07-16 12:56:00,89.7,70.9,30.14,East,101,3.0,9.0,54,0.00,,SKC,0.00,VWS V14.01,2013-07-16 16:56:00,
2013-07-16 13:00:00,89.3,71.6,30.14,East,101,0.0,9.0,56,0.00,,SKC,0.00,VWS V14.01,2013-07-16 17:00:00,
2013-07-16 13:01:00,89.5,71.7,30.14,East,101,0.0,9.0,56,0.00,,SKC,0.00,VWS V14.01,2013-07-16 17:01:00,
2013-07-16 13:06:00,88.8,72.1,30.14,East,84,0.0,5.0,58,0.00,,SKC,0.00,VWS V14.01,2013-07-16 17:06:00,
2013-07-16 13:11:00,88.6,70.9,30.14,East,84,0.0,6.0,56,0.00,,SKC,0.00,VWS V14.01,2013-07-16 17:11:00,
2013-07-16 13:16:00,88.2,71.1,30.14,East,85,0.0,7.0,57,0.00,,SKC,0.00,VWS V14.01,2013-07-16 17:16:00,
2013-07-16 13:21:00,88.4,71.2,30.14,ENE,59,0.0,7.0,57,0.00,,SKC,0.00,VWS V14.01,2013-07-16 17:21:00,
2013-07-16 13:26:00,89.3,71.6,30.14,East,99,0.0,7.0,56,0.00,,SKC,0.00,VWS V14.01,2013-07-16 17:26:00,
2013-07-16 13:32:00,89.5,70.7,30.13,ENE,77,0.0,7.0,54,0.00,,SKC,0.00,VWS V14.01,2013-07-16 17:32:00,
2013-07-16 13:37:00,89.5,71.2,30.13,NE,53,1.0,7.0,55,0.00,,SKC,0.00,VWS V14.01,2013-07-16 17:37:00,
2013-07-16 13:42:00,89.9,72.1,30.13,NE,54,0.0,7.0,56,0.00,,SKC,0.00,VWS V14.01,2013-07-16 17:42:00,
2013-07-16 13:47:00,89.5,72.3,30.13,NE,51,0.0,9.0,57,0.00,,SKC,0.00,VWS V14.01,2013-07-16 17:47:00,
2013-07-16 13:52:00,88.6,71.9,30.13,ENE,65,0.0,9.0,58,0.00,,SKC,0.00,VWS V14.01,2013-07-16 17:52:00,
2013-07-16 13:57:00,88.4,71.2,30.13,NE,55,0.0,9.0,57,0.00,,SKC,0.00,VWS V14.01,2013-07-16 17:57:00,
2013-07-16 14:00:00,88.8,71.1,30.12,East,84,5.0,9.0,56,0.00,,SKC,0.00,VWS V14.01,2013-07-16 18:00:00,
2013-07-16 14:02:00,89.0,72.3,30.12,ENE,72,5.0,8.0,58,0.00,,SKC,0.00,VWS V14.01,2013-07-16 18:02:00,
2013-07-16 14:07:00,88.8,71.6,30.12,East,90,0.0,12.0,57,0.00,,SKC,0.00,VWS V14.01,2013-07-16 18:07:00,
2013-07-16 14:12:00,88.6,71.4,30.12,ENE,71,4.0,12.0,57,0.00,,SKC,0.00,VWS V14.01,2013-07-16 18:12:00,
2013-07-16 14:18:00,89.3,72.1,30.12,East,89,0.0,12.0,57,0.00,,SKC,0.00,VWS V14.01,2013-07-16 18:18:00,
2013-07-16 14:23:00,89.5,71.2,30.12,NE,49,10.0,12.0,55,0.00,,SKC,0.00,VWS V14.01,2013-07-16 18:23:00,
2013-07-16 14:28:00,89.3,71.6,30.12,East,90,5.0,12.0,56,0.00,,SKC,0.00,VWS V14.01,2013-07-16 18:28:00,
2013-07-16 14:33:00,89.9,70.5,30.12,East,91,0.0,12.0,53,0.00,,SKC,0.00,VWS V14.01,2013-07-16 18:33:00,
2013-07-16 14:38:00,89.9,71.6,30.12,East,92,1.0,12.0,55,0.00,,SKC,0.00,VWS V14.01,2013-07-16 18:38:00,
2013-07-16 14:43:00,89.3,71.0,30.12,ESE,109,0.0,12.0,55,0.00,,SKC,0.00,VWS V14.01,2013-07-16 18:43:00,
2013-07-16 14:48:00,88.0,71.4,30.11,East,93,7.0,12.0,58,0.00,,SKC,0.00,VWS V14.01,2013-07-16 18:48:00,
2013-07-16 14:53:00,86.3,71.8,30.11,ENE,75,1.0,16.0,62,0.00,,SKC,0.00,VWS V14.01,2013-07-16 18:53:00,
2013-07-16 14:58:00,84.9,71.8,30.11,East,96,6.0,16.0,65,0.00,,SKC,0.00,VWS V14.01,2013-07-16 18:58:00,
2013-07-16 15:00:00,84.1,71.1,30.13,East,101,8.0,19.0,65,0.00,,SKC,0.00,VWS V14.01,2013-07-16 19:00:00,
2013-07-16 15:03:00,83.8,71.2,30.13,ENE,78,0.0,9.0,66,0.00,,SKC,0.00,VWS V14.01,2013-07-16 19:03:00,
2013-07-16 15:08:00,83.4,71.3,30.13,East,96,7.0,11.0,67,0.00,,SKC,0.00,VWS V14.01,2013-07-16 19:08:00,
2013-07-16 15:14:00,83.0,70.5,30.13,East,95,0.0,11.0,66,0.00,,SKC,0.00,VWS V14.01,2013-07-16 19:14:00,
2013-07-16 15:19:00,83.0,70.5,30.14,ESE,103,3.0,11.0,66,0.00,,SKC,0.00,VWS V14.01,2013-07-16 19:19:00,
2013-07-16 15:24:00,83.2,70.7,30.14,East,94,1.0,11.0,66,0.00,,SKC,0.00,VWS V14.01,2013-07-16 19:24:00,
2013-07-16 15:29:00,83.0,70.5,30.14,East,99,0.0,11.0,66,0.00,,SKC,0.00,VWS V14.01,2013-07-16 19:29:00,
2013-07-16 15:34:00,83.0,70.9,30.14,East,86,0.0,11.0,67,0.00,,SKC,0.00,VWS V14.01,2013-07-16 19:34:00,
2013-07-16 16:00:00,82.9,72.5,30.13,ESE,112,1.0,11.0,71,0.00,,SKC,0.00,VWS V14.01,2013-07-16 20:00:00,
2013-07-16 17:00:00,81.3,71.8,30.11,ESE,112,0.0,4.0,73,0.00,,SKC,0.00,VWS V14.01,2013-07-16 21:00:00,
2013-07-16 18:00:00,81.3,72.6,30.11,ESE,112,0.0,5.0,75,0.00,,SKC,0.00,VWS V14.01,2013-07-16 22:00:00,
2013-07-16 19:00:00,82.0,74.1,30.11,ESE,112,0.0,0.0,77,0.00,,SKC,0.00,VWS V14.01,2013-07-16 23:00:00,
2013-07-16 20:00:00,82.0,74.5,30.12,ESE,112,0.0,0.0,78,0.00,,SKC,0.00,VWS V14.01,2013-07-17 00:00:00,
2013-07-16 21:00:00,81.0,75.0,30.11,ESE,112,0.0,0.0,82,0.00,,SKC,0.00,VWS V14.01,2013-07-17 01:00:00,
2013-07-16 22:00:00,79.3,74.8,30.12,ESE,112,0.0,0.0,86,0.00,,SKC,0.00,VWS V14.01,2013-07-17 02:00:00,
2013-07-16 23:00:00,77.8,74.0,30.11,ESE,112,0.0,0.0,88,0.00,,SKC,0.00,VWS V14.01,2013-07-17 03:00:00,